Location: Jaite
(41.2884°N, 81.5737°W)
Time: 12:46:24
(UTC+00:00)

SL-14 R/B - Pass Details

Date: 18 January 2020
Orbit: 518 x 555 km, 82.4° (Epoch: 20 February)

Event Time Altitude Azimuth Distance (km) Brightness Sun altitude
Exits shadow 11:07:10 26° 220° (SW) 1,051 4.5 -18.8°
Drops below altitude 10° 11:09:10 10° 199° (SSW) 1,746 5.8 -18.4°
Sets 11:11:23 0° 191° (S) 2,626 6.8 -18.0°
